Hourly Data Report for September 15, 2021

MUSKOKA
ONTARIO
Current Station Operator: NAVCAN

44°58'29.000" N
79°18'12.000" W
281.90 m
6115529
71532
YQA

Download Data

Hourly Data (September 2021)
Hourly Data Report for September 15, 2021
TIME
LST
Temp Definition
°C
Dew Point Definition
°C
Rel Hum Definition
%
Precip. Amount Definition
mm

Wind Dir Definition
10's deg

Wind Spd Definition
km/h
Visibility Definition
km
Stn Press Definition
kPa
Hmdx Definition


Wind Chill Definition


Weather Definition


00:00 16.8 13.4 80 0.2 27 18 16.1 97.38     LegendNANA
01:00 15.9 12.9 82 0.0 30 15 16.1 97.39     LegendNANA
02:00 15.1 11.9 81 0.0 29 17 16.1 97.47     LegendNANA
03:00 15.1 12.1 82 0.0 30 8 16.1 97.56     LegendNANA
04:00 15.1 11.6 80 0.0 27 8 16.1 97.64     LegendNANA
05:00 14.8 10.8 77 0.0 30 8 16.1 97.68     LegendNANA
06:00 13.8 11.3 85 0.0 30 5 16.1 97.73     LegendNANA
07:00 13.9 11.5 85 0.0 33 9 16.1 97.80     LegendNANA
08:00 14.7 11.0 78 0.0 33 13 16.1 97.88     LegendNANA
09:00 15.9 11.2 74 0.0 32 15 16.1 97.98     LegendNANA
10:00 16.7 9.9 64 0.0 32 15 16.1 98.01     LegendNANA
11:00 17.8 10.7 63 0.0 26 13 16.1 98.04     LegendNANA
12:00 18.5 11.0 61 0.0 29 15 16.1 98.07     LegendNANA
13:00 19.5 12.1 62 0.0 27 13 16.1 98.07     LegendNANA
14:00 19.5 12.1 62 0.0 28 11 16.1 98.09     LegendNANA
15:00 19.2 12.1 63 0.0 31 11 16.1 98.08     LegendNANA
16:00 19.6 11.9 61 0.0 30 13 16.1 98.13     LegendNANA
17:00 19.4 11.7 61 0.0 25 13 16.1 98.20     LegendNANA
18:00 18.0 11.4 65 0.0 25 5 16.1 LegendMM     LegendNANA
19:00 15.1 11.9 81 0.0 29 8 16.1 LegendMM     LegendNANA
20:00 11.3 10.7 96 0.0 14 4 16.1 98.44     LegendNANA
21:00 10.9 10.6 98 0.0   0 16.1 98.51     LegendNANA
22:00 9.5 9.2 98 0.0   0 16.1 98.57     LegendNANA
23:00 9.0 8.7 98 0.0   0 16.1 98.60     LegendNANA

Notes on Data Quality.

Legend

  • E = Estimated
  • M = Missing
  • NA = Not Available*
  • [empty] = Indicates an unobserved value
Date modified: